www.pogodaiklimat.ru

Погода и климат >> Архив погоды >> Иран >> Ираншехр


ПОГОДА в Ираншехре

  • Прогноз погоды в Ираншехре
  • Монитор погоды в Ираншехре

АРХИВ ПОГОДЫ в Ираншехре

Время (UTC), дата Ветер
(напр.,м/с)
 
Видим.   Явления Облачность Т
(С)
Тd
(С)
f
(%)
Тe
(С)
Тes
(С)
Комфортность P
(гПа)
Po
(гПа)
Тmin
(С)
Tmax
(С)
R
(мм)
R24
(мм)
S
(см)
21 8.02 штиль 0 12 км ясно +9.2 -3.5 41 +9 +9 1020.7 951.8
00 9.02 СВ 2 12 км ясно +7.9 -5.3 39 +7 +7 1019.6 950.9
03 9.02 С 3 15 км 1/0
[Ci fib]
+6.9 -5.8 40 +5 +5 1020.9 951.7 +6.8
06 9.02 В 3 20 км 1/0
[Ac trans]
+18.3 -7.0 17 +18 +26 1021.4 953.0
09 9.02 З 3 20 км 5/0
[Cs]
+23.0 -10.7 10 +21 +29 комфорт 1018.8 950.7
12 9.02 З 3 20 км 9/0
[Ac As Cs]
+24.2 -9.0 10 +22 +23 комфорт 1017.1 949.1
15 9.02 З 3 12 км 9/0
[Ac As Cs]
+21.7 -7.2 14 +20 +20 1018.2 949.8 +24.5
18 9.02 З 4 12 км 1/0
[Ac As Ci sp]
+18.3 -4.9 20 +18 +18 1017.8 950.3
21 9.02 З 3 12 км ясно +16.4 -0.6 31 +16 +16 1017.4 950.3
00 10.02 В 2 10 км ясно +11.8 +0.6 46 +11 +11 1017.7 950.2
03 10.02 С 3 15 км 3/0
[Ci sp]
+10.6 +0.7 50 +9 +9 1019.0 951.0 +10.4 666
06 10.02 штиль 0 20 км 6/0
[Ac trans Cs]
+18.4 +4.3 39 +19 +29 1019.4 951.9
09 10.02 Ю 2 20 км 9/0
[Ac trans Cs]
+21.4 +3.6 31 +22 +30 комфорт 1017.0 949.8
12 10.02 З 2 20 км 9/1 1200 м
[Cu hum Ac As Cs]
+21.8 +1.8 27 +22 +23 комфорт 1015.7 948.1
15 10.02 З 2 12 км 9/1 1200 м
[Sc diur, vesp Ac As Ci fib]
+20.4 +2.2 30 +21 +21 комфорт 1018.3 950.2 +22.4
18 10.02 ЮВ 2 10 км 9/4 1200 м
[Cu med, cong Ac As]
+18.5 +5.3 42 +19 +19 1016.6 949.3
21 10.02 З 2 10 км 8/3 1200 м
[Cu med, cong Ac As]
+17.4 +5.6 46 +18 +18 1016.2 949.2
00 11.02 штиль 0 12 км 4/0
[Ac As]
+15.6 +7.4 58 +16 +16 1015.8 948.7
03 11.02 штиль 0 15 км 9/3 1200 м
[Sc Ac und]
+14.3 +8.1 66 +14 +14 1017.6 950.1 +14.3
06 11.02 В 2 12 км 9/1 1000 м
[Sc Ac As]
+18.3 +8.8 54 +19 +22 1018.3 951.0
09 11.02 ЮВ 2 12 км 10/0
[As trans]
+21.2 +8.2 43 +22 +27 комфорт 1015.3 948.4
12 11.02 штиль 0 12 км 9/1 1200 м
[Sc diur, vesp Ac As]
+21.7 +7.7 40 +23 +24 комфорт 1013.1 946.2
15 11.02 штиль 0 12 км 9/0
[Ac As]
+20.9 +8.0 43 +22 +22 комфорт 1015.5 948.2 +22.4
18 11.02 ЮВ 3 12 км 6/0
[Ac As]
+19.2 +9.9 55 +20 +20 1014.8 947.8
21 11.02 Ю 5 12 км ясно +18.4 +10.0 58 +18 +18 1013.3 946.6
00 12.02 Ю 3 12 км ясно +16.3 +8.7 61 +16 +16 1012.9 946.1
03 12.02 Ю 6 15 км 9/4 1050 м
[Cu med, cong Ac trans]
+17.4 +7.1 51 +17 +17 1014.4 947.5 +16.2
06 12.02 В 6 12 км 9/6 1200 м
[Cu med, cong Ac trans]
+19.5 +7.0 44 +20 +21 1013.7 946.9
09 12.02 Ю 6 5000 м пыльный позёмок 9/8 1050 м
[Cb calv Ac trans]
+21.6 +9.5 46 +23 +24 комфорт 1010.6 944.2
12 12.02 Ю 11 1000 м пыльный позёмок 10/8 1200 м
[Cu med, cong As trans]
+20.2 +10.6 54 +21 +21 комфорт 1010.1 943.3
15 12.02 Ю 8 4000 м пыльный позёмок 9/8 1200 м
[Sc diur, vesp Ac As]
+19.5 +10.8 57 +20 +20 1010.6 943.8 +22.6 666
18 12.02 СЗ 7 8000 м {ливн. осадки, дождь} 10/3 1200 м
[Cu med, cong As op]
+13.6 +10.4 81 +11 +11 1014.2 946.8 3
21 12.02 ЮВ 2 10 км в посл. час дождь 10/4 1200 м
[Cb calv As op]
+11.5 +8.4 81 +10 +10 1017.2 949.5
00 13.02 штиль 0 10 км {дождь} 10/3 600 м
[Frnb As op]
+12.2 +9.5 84 +12 +12 1017.1 949.4 4
03 13.02 С 3 12 км 5/1 1200 м
[Sc Ac As]
+10.7 +8.5 86 +9 +9 1019.4 951.3 +10.7 666
06 13.02 СЗ 2 10 км 5/5 1050 м
[Cu hum]
+15.5 +7.7 60 +15 +20 1021.9 953.5
09 13.02 С 2 15 км 5/5 1050 м
[Cu med, cong]
+18.2 +7.7 50 +19 +25 1020.7 952.4
12 13.02 С 3 20 км 4/4 750 м
[Frnb]
+19.6 +2.7 33 +20 +21 1018.9 950.9
15 13.02 СЗ 4 12 км ясно +16.4 +5.0 47 +16 +16 1020.2 951.6 +20.0
18 13.02 СВ 4 12 км ясно +13.0 +6.3 64 +11 +11 1021.1 952.6
21 13.02 В 2 12 км ясно +10.4 +8.4 87 +9 +9 1020.2 951.8
00 14.02 С 2 12 км 1/0
[Ac trans]
+8.7 +7.0 89 +7 +7 1020.0 951.6
03 14.02 С 2 15 км ясно +7.8 +6.1 89 +6 +6 1021.8 952.8 +7.6
06 14.02 В 2 20 км ясно +13.6 +4.2 53 +13 +23 1023.1 954.2
09 14.02 штиль 0 20 км ясно +18.0 +1.5 33 +18 +34 опасность
простуды
1020.0 951.5
12 14.02 ЮЗ 4 20 км ясно +19.4 +1.0 29 +20 +21 1018.5 950.1
15 14.02 ЮЗ 2 12 км ясно +16.3 +1.6 37 +17 +17 1019.7 950.7 +19.8
18 14.02 штиль 0 12 км ясно +13.0 +7.2 68 +13 +13 1019.9 951.3
21 14.02 С 2 12 км ясно +10.4 +5.3 71 +9 +9 1019.5 951.1
00 15.02 С 2 12 км ясно +8.8 +3.6 70 +7 +7 1019.2 950.8
03 15.02 С 2 15 км 1/0
[Ci sp]
+7.8 +4.2 78 +6 +6 1020.9 951.9 +7.2
06 15.02 В 2 15 км 4/0
[Ci sp]
+16.6 +2.1 38 +17 +26 1022.0 953.5
09 15.02 СЗ 2 15 км 4/0
[Ci sp]
+20.9 -0.8 23 +21 +33 комфорт 1019.7 951.5
12 15.02 З 3 20 км 6/0
[Cs]
+22.3 -2.6 19 +21 +23 комфорт 1017.5 949.4
15 15.02 ЮВ 2 15 км 6/0
[Cs]
+19.8 +2.1 31 +21 +21 комфорт 1018.2 949.7 +23.2 666

 

Местоположение метеостанции Ираншехр (Иран): широта 27.20 долгота 60.70 высота над уровнем моря 591 м.

В архиве по умолчанию представлена погода в Ираншехре за последнюю неделю. Архивные данные за месяц целиком и за предыдущие месяцы, начиная с января 2011 года, Вы можете получить, выбрав интересующий диапазон дат из раскрывающегося списка и нажав кнопку "Ввод!".


*Определитесь, кто Вы:
робот инопланетянин человек

Внимание! Время в таблицах - всемирное. Для получения местного времени необходимо прибавить поправку, которая равна 3.5 ч.

Смотрите также архив погоды в соседних городах и на ближайших метеорологических станциях:

Погода в Сараване (Иран) (162 км)
Погода в Аэропорту Конарак (Иран) (214 км)
Погода в Захедане (Иран) (253 км)
Погода в Дживани (Пакистан) (261 км)
Погода в Нок-Кунди (Пакистан) (270 км)
Погода в Гавадаре (Пакистан) (282 км)
Погода в Кехнудже (Иран) (308 км)
Погода в Баме (Иран) (309 км)
Погода в Панджгуре (Пакистан) (338 км)
Погода в Джаске (Иран) (340 км)

Пояснения к столбцам:

Ветер - указаны скорость ветра в м/с - средняя за 10 мин, порывы в срок и между сроками (в фигурных скобках) и направление, откуда дует ветер: С - северный, СВ - северо-восточный, В - восточный, ЮВ - юго-восточный, Ю - южный, ЮЗ - юго-западный, З - западный, СЗ - северо-западный.
Видимость - горизонтальная дальность видимости в метрах или километрах. При видимости от 1 до 10 км при отсутствии осадков обычно наблюдается дымка, при ухудшении видимости до 1 км и менее - туман. В сухую погоду видимость может ухудшаться дымом, пылью или мглою.
Явления - указаны атмосферные явления, наблюдавшиеся в срок или в последний час перед сроком; фигурными скобками обозначены явления, наблюдавшиеся между сроками (за 1-3 часа до срока); квадратными скобками обозначены град или гололедные отложения с указанием их диаметра в мм.
Облачность - указаны через наклонную черту общая и нижняя облачность в баллах и высота нижней границы облаков в метрах; квадратными скобками обозначены формы облаков: Ci - перистые, Cs - перисто-слоистые, Cc - перисто-кучевые, Ac - высококучевые, As - высокослоистые, Sc - слоисто-кучевые, Ns - слоисто-дождевые, Cu - кучевые, Cb - кучево-дождевые. Подробнее классификацию облаков см. в Атласе облаков (PDF).
T - Температура воздуха - температура, измеренная на высоте 2 м над землей.
Td - Температура точки росы - температура, при понижении до которой содержащийся в воздухе водяной пар достигнет насыщения.
f - Относительная влажность воздуха - влажноcть воздуха, измеренная на высоте 2 м над землей.
Te - Эффективная температура - температура, которую ощущает одетый по сезону человек в тени. Характеристика душности погоды. При расчете учитывается влияние влажности воздуха и скорости ветра на теплоощущения человека.
Tes - Эффективная температура на солнце - температура, которую ощущает человек, с поправкой на солнечный нагрев. Характеристика знойности погоды. Зависит от высоты солнца над горизонтом, облачности и скорости ветра. Ночью, в пасмурную погоду, а также при ветре 12 м/с и более поправка равна нулю.
P - Атмосферное давление - приведенное к уровню моря атмосферное давление.
Po - Атмосферное давление - измеренное на уровне метеостанции атмосферное давление.
Tmin - Минимальная температура - минимум температуры воздуха на высоте 2 м над землей.
Tmax - Максимальная температура - максимум температуры воздуха на высоте 2 м над землей.
R - Количество осадков - Количество выпавших осадков за период времени, мм. При наведении курсора мыши на число - период времени, за который выпало указанное количество осадков.
R24 - Количество осадков - Количество выпавших осадков за 24 часа, мм.
S - Снежный покров - Высота снежного покрова, см. При наведении курсора мыши на число - состояние снежного покрова и степень покрытия местности в баллах.